Regional Weather Roundup
Issued by NWS

Home | Current Version | Previous Version | Graphics & Text | Print | Product List | Glossary On
Versions: 1 2 3 4 5 6 7 8 9 10 11 12 13 14 15 16 17 18 19 20 21 22 23 24 25 26 27 28 29 30 31 32 33 34 35 36 37 38 39 40 41 42 43 44 45 46 47 48 49 50
000
ASUS43 KFSD 190802
RWRSD

WEATHER ROUNDUP FOR SOUTH DAKOTA
NATIONAL WEATHER SERVICE SIOUX FALLS SD
200 AM CST FRI DEC 19 2014

NOTE: "FAIR" INDICATES FEW OR NO CLOUDS BELOW 12,000 FEET WITH NO
SIGNIFICANT WEATHER AND/OR OBSTRUCTIONS TO VISIBILITY.


SDZ001>005-009-010-012>017-190900-
NORTHWEST AND NORTH CENTRAL SOUTH DAKOTA

CITY           SKY/WX    TMP DP  RH WIND       PRES   REMARKS
BUFFALO          N/A     28  21  75 W10       29.88F WCI  19
FAITH            N/A     24  21  88 SW9       29.97F WCI  14
MOBRIDGE       CLEAR     21  19  92 SE8       29.98F WCI  11
$$

SDZ012>016-024>037-041>051-057-063-072>074-190900-
SOUTHWEST AND SOUTH CENTRAL SOUTH DAKOTA

CITY           SKY/WX    TMP DP  RH WIND       PRES   REMARKS
RAPID CTY ARPT CLEAR     23  16  74 NW6       29.98F WCI  16
PIERRE         FOG       12  10  92 CALM      30.04S VSB 1/4
CUSTER         CLEAR     25  14  63 NW3       29.98F
ELLSWORTH AFB  CLEAR     28  18  66 W6        29.98F WCI  21
PHILIP         CLEAR     14  11  87 CALM      30.02F
PINE RIDGE     CLEAR     26  17  68 CALM      30.03F
WINNER         FAIR      26  19  74 SW3       30.05F
$$

SDZ004>011-016>023-039-040-190900-
NORTHEAST SOUTH DAKOTA

CITY           SKY/WX    TMP DP  RH WIND       PRES   REMARKS
ABERDEEN       CLOUDY    28  24  85 S9        30.10F WCI  19
WATERTOWN      CLOUDY    26  24  92 S8        30.11F FOG     WCI  18
$$

SDZ017-020-022-023-036>040-048>070-190900-
SOUTHEAST SOUTH DAKOTA

CITY           SKY/WX    TMP DP  RH WIND       PRES   REMARKS
SIOUX FALLS    CLOUDY    28  25  88 S7        30.17S WCI  21
HURON          CLOUDY    28  25  88 S9        30.11F WCI  19
MITCHELL       CLOUDY    29  26  89 S8        30.14F WCI  21
YANKTON        CLOUDY    28  25  86 S8        30.18F WCI  20
$$

ABBREVIATIONS USED IN REMARKS
   TC - TEMPERATURE IN CELSIUS
  WCI - WIND CHILL INDEX
   HX - HEAT INDEX
  VSB - VISIBILITY




USA.gov is the U.S. government's official web portal to all federal, state and local government web resources and services.